TimeEDT,TemperatureF,Dew PointF,Humidity,Sea Level PressureIn,VisibilityMPH,Wind Direction,Wind SpeedMPH,Gust SpeedMPH,PrecipitationIn,Events,Conditions,WindDirDegrees,DateUTC
12:54 AM,66.0,66.0,100,30.07,8.0,NNW,3.5,-,N/A,,Partly Cloudy,330,2008-07-10 04:54:00
1:54 AM,66.0,66.0,100,30.06,8.0,Calm,Calm,-,N/A,,Scattered Clouds,0,2008-07-10 05:54:00
2:54 AM,66.9,64.9,93,30.05,10.0,North,4.6,-,N/A,,Clear,360,2008-07-10 06:54:00
3:54 AM,66.0,64.9,96,30.04,10.0,NNW,5.8,-,N/A,,Partly Cloudy,340,2008-07-10 07:54:00
4:54 AM,66.0,64.9,96,30.05,9.0,Calm,Calm,-,N/A,,Clear,0,2008-07-10 08:54:00
5:54 AM,64.0,64.0,100,30.06,6.0,Calm,Calm,-,N/A,,Clear,0,2008-07-10 09:54:00
6:54 AM,64.9,64.0,97,30.09,4.0,Calm,Calm,-,N/A,,Partly Cloudy,0,2008-07-10 10:54:00
7:54 AM,68.0,66.0,93,30.09,7.0,Calm,Calm,-,N/A,,Clear,0,2008-07-10 11:54:00
8:54 AM,68.0,66.9,96,30.10,7.0,SSW,3.5,-,N/A,,Partly Cloudy,210,2008-07-10 12:54:00
9:54 AM,71.1,66.9,87,30.10,10.0,Calm,Calm,-,N/A,,Clear,0,2008-07-10 13:54:00
10:54 AM,71.1,66.9,87,30.11,10.0,Calm,Calm,-,N/A,,Mostly Cloudy,0,2008-07-10 14:54:00
11:54 AM,73.9,69.1,85,30.11,10.0,Calm,Calm,-,N/A,,Mostly Cloudy,0,2008-07-10 15:54:00
12:54 PM,75.0,66.0,73,30.11,10.0,South,3.5,-,N/A,,Overcast,170,2008-07-10 16:54:00
1:18 PM,73.4,66.2,78,30.19,1.5,WSW,5.8,-,0.01,Rain,Heavy Rain,250,2008-07-10 17:18:00
1:22 PM,71.6,68.0,88,30.19,1.0,SW,5.8,-,0.07,Rain,Heavy Rain,230,2008-07-10 17:22:00
1:29 PM,71.6,69.8,94,30.18,1.5,Calm,Calm,-,0.10,Rain,Rain,0,2008-07-10 17:29:00
1:35 PM,71.6,69.8,94,30.18,4.0,Calm,Calm,-,0.11,Rain,Light Rain,0,2008-07-10 17:35:00
1:54 PM,73.0,69.1,87,30.10,9.0,Calm,Calm,-,0.11,Rain,Light Rain,0,2008-07-10 17:54:00
2:54 PM,73.9,69.1,85,30.07,6.0,Calm,Calm,-,0.02,Rain,Light Rain,0,2008-07-10 18:54:00
3:54 PM,75.9,69.1,79,30.06,6.0,NNW,8.1,-,0.00,,Haze,340,2008-07-10 19:54:00
4:54 PM,77.0,68.0,74,30.04,10.0,NNE,8.1,-,N/A,,Mostly Cloudy,30,2008-07-10 20:54:00
5:54 PM,75.0,66.9,76,30.03,10.0,NNW,10.4,-,N/A,,Mostly Cloudy,340,2008-07-10 21:54:00
6:54 PM,73.9,68.0,82,30.04,10.0,NNW,9.2,-,N/A,,Mostly Cloudy,330,2008-07-10 22:54:00
7:54 PM,73.9,68.0,82,30.05,10.0,North,4.6,-,N/A,,Mostly Cloudy,350,2008-07-10 23:54:00
8:54 PM,71.1,69.1,93,30.07,4.0,Calm,Calm,-,0.02,Rain,Light Rain,0,2008-07-11 00:54:00
9:43 PM,69.8,69.8,100,30.15,8.0,Calm,Calm,-,0.00,,Overcast,0,2008-07-11 01:43:00
9:54 PM,70.0,69.1,97,30.08,8.0,Calm,Calm,-,0.00,,Overcast,0,2008-07-11 01:54:00
10:41 PM,69.8,69.8,100,30.16,8.0,Calm,Calm,-,N/A,,Overcast,0,2008-07-11 02:41:00
10:54 PM,71.1,69.1,93,30.08,10.0,Calm,Calm,-,N/A,,Overcast,0,2008-07-11 02:54:00
11:54 PM,70.0,69.1,97,30.07,10.0,Calm,Calm,-,N/A,,Overcast,0,2008-07-11 03:54:00